QPF
0.00 0.00 0.00 0.00 0.00 0.00 0.00 0.00 0.00 0.00 0.00 0.00 0.00 0.00 0.00 0.00 0.00 0.00 0.00 0.00 0.00 0.00 0.00 0.00 0.00 0.00 0.00 0.00 0.00 0.00 0.00 0.00 0.00 0.00 0.02 0.01 0.00 0.00
0.00 0.00 0.00 0.00 0.00 0.00 0.00 0.00 0.00 0.00 0.00 0.00 0.00 0.00 0.00 0.00 0.00 0.00 0.00 0.00 0.00 0.00 0.00 0.00 0.00 0.00 0.00 0.00 0.00 0.00 0.00 0.00 0.00 0.01 0.00 0.00 0.00 0.00
0.00 0.00 0.00 0.00 0.00 0.00 0.00 0.00 0.00 0.00 0.00 0.00 0.00 0.00 0.00 0.00 0.00 0.00 0.00 0.00 0.00 0.00 0.00 0.00 0.01 0.02 0.01 0.00 0.00 0.00 0.00 0.00 0.00 0.01 0.00 0.00 0.00 0.00
0.00 0.00 0.00 0.00 0.00 0.00 0.00 0.00 0.00 0.00 0.00 0.00 0.00 0.00 0.00 0.00 0.00 0.00 0.00 0.00 0.00 0.00 0.00 0.01 0.02 0.02 0.01 0.00 0.00 0.00 0.00 0.00 0.00 0.00 0.00 0.00 0.00 0.00
0.03 0.02 0.01 0.01 0.00 0.00 0.00 0.00 0.00 0.00 0.00 0.00 0.00 0.00 0.00 0.00 0.00 0.00 0.00 0.00 0.00 0.00 0.00 0.01 0.02 0.01 0.00 0.00 0.00 0.00 0.00 0.00 0.01 0.00 0.00 0.00 0.00 0.00
0.06 0.02 0.00 0.00 0.01 0.00 0.00 0.00 0.00 0.00 0.00 0.00 0.00 0.00 0.00 0.00 0.00 0.00 0.00 0.00 0.00 0.00 0.00 0.01 0.03 0.02 0.01 0.00 0.00 0.00 0.00 0.00 0.00 0.00 0.00 0.00 0.00 0.00
0.14 0.04 0.00 0.00 0.00 0.00 0.00 0.00 0.00 0.00 0.00 0.00 0.00 0.00 0.00 0.00 0.00 0.00 0.00 0.00 0.00 0.00 0.00 0.00 0.01 0.01 0.01 0.00 0.00 0.01 0.00 0.00 0.00 0.00 0.00 0.00 0.00 0.00
0.27 0.09 0.01 0.00 0.00 0.00 0.00 0.01 0.01 0.01 0.00 0.00 0.00 0.00 0.00 0.00 0.00 0.00 0.00 0.00 0.00 0.00 0.00 0.00 0.00 0.00 0.01 0.01 0.01 0.00 0.00 0.00 0.01 0.00 0.00 0.00 0.00 0.00
0.10 0.09 0.09 0.07 0.04 0.04 0.04 0.07 0.09 0.05 0.02 0.01 0.00 0.00 0.00 0.00 0.00 0.00 0.00 0.00 0.00 0.00 0.00 0.00 0.00 0.00 0.01 0.01 0.01 0.02 0.01 0.03 0.03 0.02 0.00 0.00 0.00 0.00
0.32 0.18 0.10 0.10 0.07 0.06 0.08 0.08 0.05 0.04 0.02 0.01 0.00 0.00 0.00 0.00 0.00 0.00 0.00 0.00 0.00 0.00 0.00 0.00 0.00 0.00 0.00 0.00 0.02 0.03 0.03 0.03 0.02 0.02 0.01 0.00 0.00 0.00
0.21 0.51 0.77 0.84 0.70 0.49 0.25 0.11 0.10 0.07 0.04 0.02 0.01 0.01 0.00 0.01 0.04 0.02 0.02 0.03 0.01 0.04 0.07 0.02 0.01 0.00 0.00 0.01 0.02 0.04 0.03 0.03 0.04 0.02 0.02 0.01 0.01 0.00
0.18 0.16 0.45 0.90 1.21 1.04 0.73 0.42 0.18 0.08 0.13 0.09 0.08 0.14 0.16 0.09 0.06 0.04 0.01 0.01 0.01 0.02 0.04 0.03 0.01 0.01 0.01 0.02 0.03 0.02 0.02 0.04 0.04 0.03 0.02 0.01 0.01 0.00
0.13 0.11 0.12 0.43 0.58 0.62 0.65 0.56 0.42 0.32 0.16 0.20 0.21 0.18 0.14 0.09 0.05 0.08 0.04 0.06 0.03 0.03 0.03 0.03 0.03 0.03 0.02 0.01 0.02 0.01 0.01 0.02 0.02 0.01 0.02 0.03 0.03 0.01
0.08 0.17 0.24 0.28 0.28 0.44 0.57 0.56 0.61 0.45 0.28 0.24 0.16 0.15 0.16 0.14 0.12 0.08 0.04 0.02 0.01 0.01 0.01 0.03 0.02 0.02 0.02 0.02 0.01 0.01 0.00 0.01 0.02 0.03 0.03 0.06 0.08 0.03
0.01 0.03 0.07 0.17 0.23 0.26 0.40 0.52 0.87 1.08 0.96 0.76 0.53 0.26 0.17 0.20 0.23 0.23 0.15 0.05 0.03 0.03 0.04 0.05 0.05 0.05 0.04 0.03 0.02 0.01 0.02 0.01 0.00 0.01 0.03 0.04 0.04 0.03
0.00 0.00 0.01 0.05 0.15 0.21 0.40 0.59 0.58 0.57 0.65 0.69 0.70 0.57 0.26 0.20 0.22 0.27 0.31 0.21 0.11 0.09 0.11 0.11 0.09 0.07 0.05 0.05 0.03 0.02 0.01 0.01 0.01 0.01 0.02 0.03 0.02 0.02
0.00 0.00 0.00 0.01 0.03 0.07 0.11 0.21 0.38 0.42 0.40 0.39 0.31 0.31 0.34 0.37 0.44 0.40 0.38 0.40 0.42 0.37 0.24 0.15 0.08 0.05 0.03 0.02 0.02 0.01 0.01 0.01 0.01 0.01 0.02 0.02 0.03 0.03
0.00 0.00 0.00 0.00 0.00 0.00 0.01 0.04 0.09 0.15 0.21 0.23 0.22 0.19 0.19 0.29 0.52 0.55 0.38 0.29 0.34 0.42 0.38 0.26 0.17 0.09 0.07 0.04 0.04 0.01 0.00 0.01 0.00 0.01 0.02 0.02 0.04 0.06
0.00 0.00 0.00 0.00 0.00 0.00 0.00 0.01 0.01 0.01 0.02 0.02 0.04 0.05 0.06 0.06 0.08 0.12 0.13 0.11 0.08 0.06 0.06 0.09 0.10 0.06 0.03 0.01 0.01 0.03 0.01 0.00 0.00 0.02 0.03 0.04 0.04 0.06
0.00 0.00 0.00 0.00 0.00 0.00 0.00 0.01 0.02 0.02 0.02 0.02 0.02 0.02 0.04 0.04 0.05 0.03 0.03 0.03 0.04 0.04 0.06 0.05 0.04 0.03 0.03 0.04 0.04 0.02 0.05 0.02 0.00 0.02 0.04 0.06 0.09 0.10
0.00 0.00 0.00 0.00 0.00 0.00 0.00 0.00 0.00 0.00 0.02 0.02 0.02 0.03 0.05 0.05 0.04 0.04 0.04 0.07 0.06 0.02 0.02 0.01 0.02 0.09 0.05 0.06 0.03 0.01 0.03 0.08 0.04 0.02 0.02 0.05 0.07 0.09
0.00 0.00 0.00 0.00 0.00 0.00 0.00 0.00 0.00 0.00 0.00 0.00 0.00 0.00 0.02 0.04 0.06 0.07 0.06 0.05 0.05 0.04 0.03 0.03 0.02 0.04 0.03 0.03 0.04 0.03 0.03 0.06 0.13 0.11 0.08 0.07 0.06 0.06
0.00 0.00 0.00 0.00 0.00 0.00 0.00 0.00 0.00 0.00 0.00 0.00 0.00 0.00 0.00 0.00 0.00 0.01 0.03 0.05 0.06 0.07 0.05 0.04 0.04 0.03 0.03 0.04 0.08 0.04 0.03 0.06 0.08 0.11 0.15 0.15 0.15 0.11
MSLP
1017.07 1017.40 1017.61 1017.88 1018.35 1018.69 1018.88 1019.19 1019.62 1020.37 1020.44 1020.46 1021.23 1020.79 1020.65 1020.82 1020.99 1021.66 1022.05 1022.52 1023.03 1023.55 1023.92 1024.32 1024.78 1025.27 1025.90 1026.44 1026.72 1027.02 1027.34 1027.80 1028.20 1028.51 1028.64 1029.13 1029.37 1029.21
1015.68 1016.21 1016.47 1016.66 1017.23 1017.65 1018.00 1018.35 1018.46 1018.71 1018.76 1018.44 1019.45 1019.60 1019.78 1019.95 1020.28 1020.84 1021.14 1021.45 1022.00 1022.51 1023.02 1023.52 1023.99 1024.67 1025.40 1025.82 1026.23 1026.61 1027.03 1027.42 1028.01 1028.24 1028.49 1028.62 1028.76 1028.93
1014.36 1014.76 1014.95 1015.37 1015.77 1016.51 1016.93 1017.20 1017.60 1017.97 1018.02 1016.89 1018.15 1018.89 1019.54 1019.68 1019.85 1020.06 1020.41 1020.69 1021.18 1021.58 1022.06 1022.48 1023.25 1023.76 1024.53 1025.24 1025.63 1026.21 1026.44 1026.66 1027.08 1027.40 1027.84 1027.98 1028.26 1028.33
1012.72 1013.32 1013.57 1014.22 1014.68 1014.90 1015.62 1015.87 1016.27 1016.63 1017.16 1016.57 1017.70 1018.50 1018.78 1019.06 1019.14 1019.70 1020.03 1020.33 1020.65 1021.11 1021.52 1021.93 1022.31 1023.04 1023.54 1024.00 1024.63 1024.93 1025.41 1026.03 1026.39 1026.72 1026.96 1027.18 1027.45 1027.67
1011.43 1012.01 1012.32 1012.94 1013.15 1013.55 1013.92 1014.27 1014.66 1015.06 1015.58 1015.98 1016.45 1017.92 1018.33 1018.70 1019.21 1019.32 1019.48 1019.70 1020.07 1020.50 1020.87 1021.24 1021.61 1022.19 1022.54 1023.22 1023.65 1024.31 1024.72 1024.97 1025.50 1025.86 1026.53 1026.84 1026.91 1027.14
1010.33 1010.67 1010.88 1011.16 1011.60 1011.85 1012.15 1012.26 1012.76 1013.56 1014.12 1014.72 1015.32 1016.83 1017.53 1017.87 1018.21 1018.63 1019.28 1019.42 1019.77 1020.05 1020.47 1020.71 1021.01 1021.37 1021.97 1022.26 1022.96 1023.53 1024.13 1024.65 1025.10 1025.66 1026.07 1026.36 1026.48 1026.77
1009.81 1010.13 1010.01 1009.69 1009.97 1010.30 1010.65 1011.10 1011.34 1011.98 1012.75 1013.23 1013.87 1015.43 1016.17 1016.80 1016.80 1017.25 1018.20 1018.98 1019.45 1019.71 1020.02 1020.22 1020.45 1020.60 1021.04 1021.56 1021.81 1022.06 1022.89 1023.90 1024.59 1024.80 1025.22 1025.62 1026.03 1026.24
1007.88 1009.38 1009.68 1008.74 1009.04 1009.07 1009.29 1009.38 1009.77 1010.10 1010.92 1011.55 1011.88 1012.75 1013.41 1014.29 1015.35 1016.31 1017.62 1018.80 1019.72 1018.71 1019.02 1019.29 1019.50 1019.66 1019.86 1020.26 1020.38 1021.13 1021.96 1022.68 1023.47 1023.82 1024.27 1024.83 1025.42 1025.84
1008.41 1007.28 1006.97 1006.32 1007.83 1007.77 1007.92 1008.16 1008.62 1008.56 1008.58 1009.38 1009.94 1009.86 1010.72 1011.86 1013.43 1014.79 1015.60 1016.25 1016.28 1016.72 1017.48 1018.25 1018.71 1018.61 1018.86 1019.10 1019.46 1019.92 1020.39 1020.93 1021.78 1022.38 1023.16 1023.71 1024.55 1025.13
1004.96 1004.66 1005.22 1004.54 1005.61 1006.65 1006.17 1006.46 1007.07 1007.44 1007.61 1007.74 1007.75 1007.81 1008.34 1009.76 1010.65 1011.31 1012.59 1014.18 1015.62 1016.19 1016.54 1017.60 1017.78 1017.53 1017.91 1018.14 1018.23 1018.74 1019.35 1019.80 1020.47 1021.31 1022.05 1022.77 1023.48 1024.35
1004.88 1004.52 1004.27 1004.26 1004.54 1005.80 1003.49 1005.29 1005.14 1005.33 1005.93 1006.19 1006.34 1006.30 1006.69 1007.53 1008.79 1010.61 1012.10 1013.59 1014.58 1014.89 1015.25 1015.58 1016.36 1016.84 1016.97 1017.18 1017.32 1017.77 1018.46 1019.14 1019.51 1020.04 1020.85 1021.56 1022.16 1022.98
1005.78 1005.01 1004.00 1003.23 1002.84 1003.55 1003.89 1004.51 1004.06 1003.29 1004.24 1004.78 1005.82 1006.14 1006.14 1006.24 1007.02 1007.19 1009.14 1010.70 1011.66 1013.32 1013.07 1014.37 1015.05 1015.69 1016.62 1015.72 1016.06 1016.48 1017.03 1017.61 1018.21 1018.58 1019.46 1020.55 1021.60 1022.21
1007.05 1005.95 1004.33 1003.77 1003.22 1002.82 1003.46 1002.79 1003.01 1002.70 1002.68 1003.00 1004.04 1004.50 1005.14 1005.81 1006.56 1006.40 1006.62 1007.23 1008.61 1009.48 1010.57 1011.40 1012.85 1013.69 1014.15 1014.59 1014.64 1015.09 1015.49 1015.95 1016.74 1017.66 1018.31 1018.98 1020.10 1020.96
1007.95 1007.07 1005.41 1004.21 1003.71 1003.03 1001.65 1001.44 1001.91 1001.82 1002.06 1002.80 1002.87 1002.64 1003.34 1003.96 1004.46 1004.98 1005.25 1005.62 1006.05 1006.36 1008.32 1009.35 1010.58 1011.21 1012.33 1013.48 1013.94 1014.20 1014.66 1014.98 1015.70 1016.06 1016.65 1017.44 1018.35 1019.12
1008.19 1006.85 1005.88 1004.23 1003.68 1002.99 1002.10 1001.62 1001.87 1002.01 1001.80 1002.73 1002.84 1001.72 1001.34 1002.19 1002.89 1004.40 1004.47 1005.19 1006.28 1007.11 1007.49 1008.08 1008.72 1009.68 1010.60 1011.35 1012.13 1012.90 1013.70 1014.03 1014.39 1015.11 1015.70 1015.87 1016.35 1017.72
1007.64 1006.34 1005.14 1004.50 1004.39 1004.07 1003.44 1002.39 1002.22 1001.22 1000.69 1001.30 1001.28 1000.80 1000.53 1001.98 1002.43 1003.59 1003.55 1003.59 1005.49 1006.76 1007.46 1007.64 1008.02 1008.73 1009.70 1010.13 1010.78 1011.72 1012.04 1012.50 1013.05 1013.68 1014.51 1015.19 1015.75 1016.37
1007.87 1006.75 1005.40 1005.02 1004.87 1004.54 1003.57 1002.98 1002.79 1002.55 1001.77 1000.75 1000.04 1000.36 1000.69 1001.43 1002.07 1003.29 1003.21 1003.09 1004.71 1005.89 1006.49 1007.74 1007.68 1008.12 1008.60 1009.42 1010.24 1010.69 1011.13 1011.72 1012.10 1012.96 1014.08 1014.45 1014.81 1015.33
1007.38 1006.83 1006.05 1005.57 1005.56 1004.85 1004.02 1004.16 1002.43 1002.05 1003.35 1000.85 1000.07 1000.49 1000.91 1000.84 1001.81 1001.79 1002.15 1001.66 1003.35 1004.88 1002.96 1005.76 1006.68 1008.42 1008.63 1008.56 1008.61 1009.45 1010.33 1010.74 1011.37 1012.06 1012.99 1013.54 1013.88 1014.36
1007.72 1007.24 1006.47 1005.58 1004.89 1004.81 1004.29 1003.98 1003.03 1003.21 1002.60 1002.54 1001.03 1000.85 1000.95 1001.04 1001.09 1000.04 1000.98 1001.40 1002.69 1003.69 1003.80 1004.45 1005.63 1006.60 1007.16 1007.08 1007.14 1007.17 1008.22 1009.12 1010.39 1010.96 1011.31 1011.68 1011.97 1012.72
1008.60 1008.19 1007.22 1006.33 1005.42 1004.79 1003.77 1003.21 1002.69 1002.18 1002.23 1002.09 1001.82 1000.72 1001.34 1001.16 1001.39 1001.46 1000.95 1001.48 1002.09 1002.16 1003.07 1003.42 1003.91 1004.65 1005.03 1005.56 1005.78 1006.57 1007.25 1008.22 1008.98 1009.81 1010.69 1011.15 1011.85 1012.42
1008.43 1007.97 1007.53 1007.11 1006.23 1005.28 1004.58 1003.91 1003.51 1002.87 1002.23 1001.78 1001.95 1001.00 1000.75 1001.27 1001.02 1001.28 1001.28 1000.82 1001.56 1002.01 1002.72 1003.31 1003.72 1003.76 1004.56 1005.32 1006.50 1006.73 1006.74 1007.37 1007.76 1008.39 1009.40 1010.51 1011.36 1011.95
1008.12 1007.53 1007.13 1006.57 1006.14 1005.65 1005.07 1004.42 1003.64 1002.93 1002.64 1002.07 1001.87 1001.54 1001.62 1001.67 1001.58 1000.95 1001.22 1001.44 1001.39 1001.75 1001.85 1002.37 1003.14 1003.71 1004.16 1004.64 1005.08 1006.23 1006.57 1007.30 1007.90 1008.29 1008.91 1009.53 1010.42 1010.67
1007.76 1007.26 1006.75 1006.21 1005.68 1005.13 1004.82 1004.63 1003.97 1003.41 1003.20 1002.67 1002.41 1001.50 1001.44 1001.17 1001.22 1001.15 1001.18 1001.41 1001.31 1001.34 1001.56 1002.18 1002.76 1003.05 1003.51 1003.99 1004.55 1005.34 1005.90 1006.68 1007.55 1008.43 1009.28 1009.50 1010.13 1010.32
Thickness
5680 5681 5684 5686 5685 5685 5687 5686 5682 5677 5682 5682 5678 5681 5679 5677 5677 5672 5669 5666 5662 5656 5651 5646 5639 5634 5627 5620 5615 5609 5603 5596 5590 5585 5580 5573 5567 5563
5679 5677 5680 5685 5682 5683 5683 5683 5682 5682 5680 5693 5683 5684 5680 5678 5675 5671 5669 5668 5665 5659 5653 5646 5640 5633 5626 5620 5613 5607 5601 5595 5587 5583 5578 5573 5567 5560
5678 5678 5681 5683 5680 5679 5679 5680 5678 5677 5675 5700 5686 5680 5674 5673 5672 5670 5668 5667 5663 5660 5655 5649 5641 5636 5627 5618 5612 5602 5599 5597 5590 5585 5579 5572 5566 5560
5681 5679 5683 5680 5678 5679 5677 5679 5678 5678 5673 5686 5681 5672 5672 5670 5668 5665 5663 5661 5659 5656 5652 5647 5643 5637 5631 5625 5616 5610 5602 5595 5591 5584 5580 5575 5567 5561
5676 5675 5680 5677 5677 5680 5678 5679 5680 5680 5677 5678 5681 5665 5664 5663 5659 5660 5660 5659 5657 5652 5649 5645 5643 5638 5634 5626 5621 5612 5605 5601 5594 5586 5577 5572 5568 5560
5671 5671 5676 5678 5678 5682 5682 5685 5683 5677 5677 5675 5676 5660 5659 5660 5658 5657 5654 5653 5651 5647 5642 5641 5640 5637 5631 5627 5620 5613 5605 5598 5591 5584 5578 5571 5567 5559
5656 5657 5665 5675 5675 5682 5682 5680 5682 5676 5673 5673 5673 5657 5657 5657 5663 5660 5653 5645 5641 5640 5638 5637 5635 5635 5633 5626 5622 5618 5608 5597 5589 5586 5580 5573 5565 5558
5634 5642 5651 5667 5668 5670 5674 5677 5680 5678 5672 5671 5676 5669 5672 5668 5661 5653 5640 5632 5628 5640 5635 5634 5632 5634 5632 5626 5625 5617 5608 5599 5591 5586 5580 5572 5563 5556
5628 5649 5655 5667 5657 5664 5668 5669 5665 5671 5676 5674 5671 5680 5681 5675 5664 5651 5646 5642 5649 5642 5635 5633 5631 5633 5629 5626 5622 5618 5611 5606 5597 5589 5579 5572 5562 5554
5646 5653 5653 5663 5656 5657 5669 5670 5665 5664 5669 5674 5677 5686 5686 5675 5672 5668 5656 5644 5634 5633 5632 5626 5627 5630 5623 5623 5622 5617 5609 5605 5597 5588 5579 5570 5561 5551
5629 5636 5644 5651 5651 5647 5653 5656 5664 5665 5664 5666 5673 5680 5681 5677 5671 5654 5642 5635 5628 5629 5631 5629 5625 5620 5619 5620 5619 5614 5605 5598 5593 5586 5577 5569 5561 5550
5600 5612 5622 5637 5643 5637 5632 5639 5652 5669 5662 5662 5658 5659 5664 5667 5665 5668 5652 5645 5640 5624 5638 5626 5619 5615 5609 5620 5616 5612 5606 5599 5590 5586 5577 5564 5552 5545
5569 5584 5603 5612 5621 5625 5625 5637 5646 5641 5647 5659 5655 5654 5651 5647 5646 5657 5659 5659 5648 5646 5643 5635 5624 5619 5616 5613 5614 5610 5605 5599 5590 5580 5573 5564 5550 5541
5544 5556 5575 5590 5599 5610 5625 5632 5630 5634 5640 5640 5648 5654 5649 5649 5651 5650 5652 5649 5649 5652 5640 5635 5626 5624 5616 5604 5603 5602 5596 5591 5584 5580 5572 5562 5551 5541
5521 5537 5551 5571 5582 5594 5608 5613 5612 5617 5621 5617 5615 5623 5645 5644 5644 5632 5635 5631 5623 5624 5624 5623 5622 5617 5612 5606 5599 5595 5586 5584 5579 5572 5564 5559 5553 5538
5500 5520 5538 5549 5554 5565 5575 5590 5592 5606 5619 5619 5621 5620 5620 5621 5626 5623 5632 5602 5613 5607 5604 5605 5606 5602 5599 5599 5594 5586 5584 5579 5575 5567 5556 5549 5541 5532
5474 5492 5514 5525 5534 5542 5554 5563 5565 5572 5587 5597 5609 5609 5604 5605 5607 5603 5611 5619 5608 5590 5592 5581 5586 5584 5584 5582 5580 5579 5575 5570 5563 5554 5542 5538 5533 5526
5454 5468 5484 5497 5504 5517 5529 5533 5550 5560 5550 5575 5590 5591 5594 5599 5592 5593 5594 5611 5604 5596 5611 5586 5575 5564 5565 5570 5574 5568 5562 5559 5551 5544 5535 5528 5523 5516
5430 5441 5455 5471 5486 5493 5504 5516 5528 5530 5539 5545 5563 5570 5572 5576 5581 5599 5592 5595 5593 5588 5586 5575 5571 5566 5563 5572 5568 5566 5559 5554 5542 5536 5530 5525 5522 5513
5407 5413 5427 5441 5459 5473 5487 5499 5511 5519 5524 5530 5540 5556 5552 5558 5562 5567 5577 5580 5578 5577 5573 5571 5569 5565 5567 5566 5564 5556 5550 5542 5535 5525 5515 5507 5501 5494
5394 5401 5409 5416 5430 5446 5459 5471 5481 5494 5504 5515 5520 5535 5541 5541 5550 5550 5553 5561 5560 5559 5559 5554 5552 5550 5543 5539 5534 5533 5536 5529 5524 5516 5504 5493 5485 5477
5382 5390 5397 5406 5414 5425 5434 5445 5459 5472 5481 5493 5501 5510 5516 5522 5526 5535 5536 5539 5542 5541 5542 5537 5534 5533 5530 5531 5532 5518 5515 5507 5502 5496 5489 5481 5471 5467
5374 5379 5385 5393 5402 5413 5420 5424 5434 5445 5454 5464 5474 5487 5494 5502 5507 5511 5516 5516 5521 5523 5523 5522 5518 5517 5516 5514 5511 5504 5498 5490 5482 5473 5466 5462 5453 5448